MLP761 FAOR-LIMC

Flight info

Callsign MLP761
Flight time N/A
Altitude 40000
Route VASUR3A VASUR UZ21 ITROL UQ25 RUDAS UM731 FL UA607 DIR UB730 DJA UA605 BARKA UG362 EBA UG869 MAKEB UM858 DOPEL DCT VEKET DCT SUNEV DCT DEVOX
Aircraft A359/H-SDE2E3GHIJ3J4J5LM1ORWXY/LB1D1

Departure

Time 2026-05-01 07:24
Airport O.R. Tambo International Airport (FAOR)

Arrival

Time N/A
Airport Milan Malpensa International Airport (LIMC)
Time Latitude Longitude Altitude Speed Heading
2026-05-01 07:23 -26.13654 28.23741 5565 ft 122 kts 15°
2026-05-01 07:23 -26.11449 28.24425 5823 ft 188 kts 12°
2026-05-01 07:24 -26.10269 28.24773 6832 ft 159 kts
2026-05-01 07:24 -26.09327 28.25089 7610 ft 133 kts 10°
2026-05-01 07:24 -26.08350 28.25418 7764 ft 161 kts
2026-05-01 07:24 -26.07200 28.25306 7678 ft 169 kts 328°
2026-05-01 07:25 -26.06448 28.24337 7572 ft 178 kts 296°
2026-05-01 07:25 -26.05911 28.22978 7573 ft 206 kts 291°
2026-05-01 07:25 -26.05352 28.21418 7569 ft 230 kts 291°
2026-05-01 07:25 -26.04717 28.19662 7573 ft 255 kts 291°
2026-05-01 07:26 -26.03860 28.17925 7612 ft 265 kts 305°
2026-05-01 07:26 -26.02557 28.16438 8080 ft 270 kts 316°
2026-05-01 07:26 -26.01086 28.15125 8918 ft 271 kts 319°
2026-05-01 07:26 -25.99549 28.13913 9811 ft 271 kts 321°
2026-05-01 07:27 -25.97969 28.12747 10513 ft 276 kts 322°
2026-05-01 07:27 -25.96311 28.11550 10861 ft 292 kts 322°
2026-05-01 07:27 -25.94553 28.10284 11159 ft 309 kts 323°
2026-05-01 07:27 -25.92704 28.08955 11403 ft 324 kts 323°
2026-05-01 07:28 -25.90775 28.07559 11746 ft 336 kts 323°
2026-05-01 07:28 -25.88798 28.06118 12309 ft 341 kts 323°
2026-05-01 07:28 -25.86806 28.04657 12917 ft 344 kts 323°
2026-05-01 07:28 -25.84796 28.03176 13524 ft 347 kts 323°
2026-05-01 07:29 -25.82782 28.01688 14132 ft 349 kts 323°
2026-05-01 07:29 -25.80759 28.00193 14651 ft 351 kts 323°
2026-05-01 07:29 -25.78720 27.98687 15155 ft 354 kts 323°
2026-05-01 07:29 -25.76667 27.97167 15653 ft 356 kts 323°
2026-05-01 07:30 -25.74598 27.95633 16168 ft 359 kts 323°
2026-05-01 07:30 -25.72516 27.94093 16661 ft 361 kts 323°
2026-05-01 07:30 -25.70419 27.92542 17162 ft 364 kts 323°
2026-05-01 07:30 -25.68305 27.90979 17655 ft 366 kts 323°
2026-05-01 07:31 -25.66176 27.89407 18150 ft 369 kts 323°
2026-05-01 07:31 -25.59705 27.84636 19520 ft 378 kts 323°
2026-05-01 07:32 -25.55301 27.81393 20466 ft 382 kts 322°
2026-05-01 07:32 -25.53081 27.79758 20880 ft 384 kts 322°
2026-05-01 07:33 -25.48596 27.76458 21717 ft 389 kts 322°
2026-05-01 07:33 -25.46337 27.74797 22139 ft 391 kts 322°
2026-05-01 07:33 -25.41804 27.71466 22941 ft 396 kts 322°
2026-05-01 07:34 -25.39500 27.69773 23352 ft 398 kts 322°
2026-05-01 07:34 -25.34853 27.66365 24117 ft 402 kts 322°
2026-05-01 07:34 -25.32518 27.64654 24531 ft 402 kts 322°
2026-05-01 07:35 -25.30181 27.62942 24972 ft 403 kts 322°
2026-05-01 07:35 -25.27845 27.61232 25447 ft 403 kts 322°
2026-05-01 07:35 -25.25509 27.59522 25885 ft 403 kts 322°
2026-05-01 07:35 -25.23167 27.57808 26330 ft 404 kts 322°
2026-05-01 07:36 -25.20817 27.56089 26778 ft 405 kts 322°
2026-05-01 07:36 -25.18465 27.54371 27189 ft 406 kts 322°
2026-05-01 07:36 -25.16106 27.52650 27598 ft 407 kts 322°
2026-05-01 07:36 -25.13764 27.50939 27979 ft 408 kts 322°
2026-05-01 07:37 -25.09011 27.47466 28796 ft 411 kts 322°
2026-05-01 07:37 -25.06621 27.45722 29221 ft 412 kts 322°
2026-05-01 07:37 -25.04255 27.43941 29612 ft 412 kts 320°
2026-05-01 07:38 -25.02028 27.41956 29958 ft 412 kts 316°
2026-05-01 07:38 -24.99858 27.39892 30363 ft 412 kts 316°
2026-05-01 07:38 -24.95561 27.35667 30972 ft 416 kts 315°
2026-05-01 07:39 -24.93414 27.33535 31232 ft 417 kts 315°
2026-05-01 07:39 -24.91248 27.31387 31497 ft 419 kts 315°
2026-05-01 07:39 -24.87623 27.27805 31925 ft 422 kts 316°
2026-05-01 07:40 -24.85429 27.25647 32174 ft 423 kts 316°
2026-05-01 07:40 -24.83227 27.23483 32407 ft 425 kts 316°
2026-05-01 07:40 -24.81015 27.21313 32625 ft 427 kts 316°
2026-05-01 07:40 -24.78799 27.19139 32857 ft 428 kts 316°
2026-05-01 07:41 -24.76579 27.16964 33182 ft 426 kts 316°
2026-05-01 07:41 -24.74369 27.14800 33548 ft 425 kts 316°
2026-05-01 07:41 -24.69961 27.10487 34248 ft 421 kts 316°
2026-05-01 07:42 -24.67777 27.08350 34521 ft 420 kts 316°
2026-05-01 07:42 -24.65594 27.06214 34775 ft 420 kts 316°
2026-05-01 07:42 -24.63413 27.04081 35013 ft 419 kts 316°
2026-05-01 07:42 -24.61232 27.01949 35249 ft 419 kts 316°
2026-05-01 07:43 -24.59056 26.99824 35487 ft 418 kts 316°
2026-05-01 07:43 -24.56885 26.97705 35728 ft 417 kts 316°
2026-05-01 07:43 -24.52544 26.93471 36128 ft 418 kts 315°
2026-05-01 07:44 -24.43888 26.85037 36156 ft 417 kts 316°
2026-05-01 07:45 -24.39542 26.80809 36154 ft 418 kts 316°
2026-05-01 07:45 -24.35190 26.76581 36152 ft 418 kts 316°
2026-05-01 07:46 -24.30455 26.72830 36148 ft 424 kts 326°
2026-05-01 07:47 -24.22355 26.68739 36144 ft 429 kts 332°
2026-05-01 07:47 -24.16856 26.66200 36143 ft 429 kts 332°
2026-05-01 07:48 -24.08604 26.62355 36139 ft 429 kts 332°
2026-05-01 07:48 -24.03115 26.59772 36139 ft 430 kts 332°
2026-05-01 07:49 -23.94903 26.55904 36142 ft 430 kts 332°
2026-05-01 07:50 -23.89391 26.53312 36140 ft 431 kts 332°
2026-05-01 07:50 -23.81118 26.49428 36140 ft 431 kts 332°
2026-05-01 07:51 -23.75596 26.46839 36134 ft 432 kts 332°
2026-05-01 07:52 -23.67308 26.42957 36137 ft 432 kts 332°
2026-05-01 07:52 -23.61813 26.40365 36139 ft 432 kts 332°
2026-05-01 07:53 -23.53525 26.36454 36139 ft 433 kts 332°
2026-05-01 07:53 -23.47987 26.33849 36138 ft 434 kts 332°
2026-05-01 07:55 -23.34099 26.27332 36137 ft 435 kts 332°
2026-05-01 07:56 -23.20218 26.20830 36133 ft 436 kts 332°
2026-05-01 07:57 -23.11852 26.16918 36132 ft 436 kts 332°
2026-05-01 07:58 -23.00714 26.11718 36137 ft 437 kts 332°
2026-05-01 07:59 -22.89517 26.06500 36138 ft 438 kts 332°
2026-05-01 08:00 -22.72691 25.98679 36144 ft 439 kts 333°
2026-05-01 08:01 -22.61474 25.93476 36139 ft 440 kts 333°
2026-05-01 08:02 -22.53015 25.89559 36119 ft 441 kts 333°
2026-05-01 08:03 -22.44549 25.85644 36129 ft 441 kts 333°
2026-05-01 08:03 -22.36067 25.81726 36126 ft 442 kts 333°
2026-05-01 08:04 -22.24764 25.76513 36112 ft 443 kts 333°
2026-05-01 08:05 -22.16244 25.72591 36111 ft 444 kts 333°
2026-05-01 08:06 -22.07720 25.68671 36112 ft 444 kts 333°
2026-05-01 08:07 -21.96367 25.63459 36117 ft 445 kts 333°
2026-05-01 08:08 -21.87808 25.59535 36111 ft 446 kts 333°
2026-05-01 08:09 -21.76372 25.54300 36107 ft 447 kts 333°
2026-05-01 08:09 -21.70651 25.51684 36106 ft 447 kts 333°
2026-05-01 08:10 -21.59210 25.46463 36106 ft 449 kts 333°
2026-05-01 08:11 -21.47548 25.41523 36102 ft 450 kts 335°
2026-05-01 08:12 -21.38815 25.37872 36107 ft 451 kts 335°
2026-05-01 08:13 -21.30046 25.34175 36109 ft 452 kts 335°
2026-05-01 08:13 -21.21262 25.30472 36104 ft 453 kts 335°
2026-05-01 08:14 -21.15395 25.28002 36111 ft 453 kts 335°
2026-05-01 08:14 -21.09516 25.25530 36106 ft 454 kts 335°
2026-05-01 08:15 -21.00719 25.21835 36114 ft 455 kts 335°
2026-05-01 08:16 -20.94905 25.19172 36106 ft 454 kts 332°
2026-05-01 08:16 -20.89200 25.16280 36098 ft 454 kts 332°
2026-05-01 08:17 -20.83478 25.13396 36111 ft 455 kts 332°
2026-05-01 08:17 -20.77728 25.10553 36110 ft 455 kts 332°
2026-05-01 08:18 -20.71962 25.07729 36103 ft 456 kts 332°
2026-05-01 08:19 -20.60454 25.02106 36103 ft 456 kts 332°
2026-05-01 08:19 -20.54674 24.99283 36100 ft 457 kts 333°
2026-05-01 08:20 -20.48888 24.96458 36103 ft 457 kts 333°
2026-05-01 08:20 -20.43099 24.93635 36097 ft 458 kts 333°
2026-05-01 08:21 -20.37208 24.91108 36094 ft 460 kts 337°
2026-05-01 08:21 -20.31136 24.88906 36092 ft 461 kts 338°
2026-05-01 08:22 -20.25057 24.86699 36093 ft 461 kts 338°
2026-05-01 08:22 -20.19001 24.84425 36088 ft 462 kts 337°
2026-05-01 08:23 -20.12989 24.82020 36090 ft 461 kts 335°
2026-05-01 08:23 -20.07069 24.79341 36088 ft 461 kts 334°
2026-05-01 08:24 -20.01203 24.76666 36088 ft 462 kts 334°
2026-05-01 08:24 -19.95269 24.74014 36086 ft 463 kts 334°
2026-05-01 08:25 -19.89322 24.71387 36085 ft 463 kts 335°
2026-05-01 08:25 -19.83363 24.68764 36082 ft 464 kts 335°
2026-05-01 08:26 -19.77392 24.66136 36082 ft 464 kts 335°
2026-05-01 08:26 -19.71418 24.63507 36082 ft 465 kts 335°
2026-05-01 08:27 -19.65433 24.60870 36083 ft 465 kts 335°
2026-05-01 08:27 -19.59501 24.58215 36077 ft 465 kts 334°
2026-05-01 08:28 -19.53534 24.55534 36081 ft 466 kts 334°
2026-05-01 08:28 -19.48523 24.53288 36083 ft 466 kts 334°
2026-05-01 08:29 -19.42578 24.50630 36081 ft 467 kts 334°
2026-05-01 08:29 -19.36584 24.47955 36077 ft 467 kts 334°
2026-05-01 08:30 -19.30582 24.45278 36083 ft 468 kts 334°
2026-05-01 08:30 -19.24579 24.42603 36079 ft 468 kts 334°
2026-05-01 08:31 -19.18562 24.39923 36084 ft 469 kts 334°
2026-05-01 08:31 -19.12540 24.37244 36082 ft 470 kts 335°
2026-05-01 08:32 -19.06469 24.34636 36084 ft 471 kts 336°
2026-05-01 08:32 -19.00385 24.32156 36084 ft 471 kts 336°
2026-05-01 08:33 -18.94268 24.29664 36082 ft 472 kts 336°
2026-05-01 08:33 -18.88146 24.27136 36082 ft 472 kts 335°
2026-05-01 08:34 -18.82121 24.24377 36083 ft 472 kts 333°
2026-05-01 08:34 -18.76129 24.21523 36083 ft 473 kts 333°
2026-05-01 08:35 -18.70113 24.18695 36082 ft 473 kts 334°
2026-05-01 08:35 -18.64075 24.15894 36083 ft 474 kts 334°
2026-05-01 08:36 -18.58028 24.13102 36083 ft 475 kts 334°
2026-05-01 08:36 -18.51973 24.10310 36084 ft 475 kts 334°
2026-05-01 08:37 -18.45949 24.07533 36086 ft 476 kts 334°
2026-05-01 08:37 -18.39875 24.04734 36086 ft 476 kts 334°
2026-05-01 08:38 -18.33799 24.01935 36085 ft 477 kts 334°
2026-05-01 08:38 -18.27687 23.99200 36084 ft 477 kts 335°
2026-05-01 08:39 -18.21533 23.96541 36084 ft 478 kts 335°
2026-05-01 08:39 -18.15371 23.93878 36085 ft 479 kts 335°
2026-05-01 08:40 -18.06164 23.89874 36082 ft 480 kts 335°
2026-05-01 08:40 -17.99996 23.87187 36082 ft 480 kts 335°
2026-05-01 08:41 -17.93820 23.84499 36084 ft 481 kts 335°
2026-05-01 08:41 -17.87630 23.81804 36082 ft 481 kts 335°
2026-05-01 08:42 -17.81453 23.79072 36083 ft 482 kts 335°
2026-05-01 08:42 -17.75314 23.76345 36082 ft 482 kts 335°
2026-05-01 08:43 -17.69136 23.73596 36084 ft 483 kts 334°
2026-05-01 08:43 -17.63051 23.70630 36083 ft 482 kts 332°
2026-05-01 08:44 -17.56996 23.67564 36080 ft 483 kts 332°
2026-05-01 08:44 -17.50813 23.64785 36082 ft 484 kts 336°
2026-05-01 08:45 -17.44523 23.62219 36083 ft 485 kts 336°
2026-05-01 08:45 -17.38234 23.59646 36083 ft 485 kts 336°
2026-05-01 08:46 -17.31951 23.57022 36082 ft 486 kts 336°
2026-05-01 08:46 -17.25677 23.54380 36082 ft 486 kts 336°
2026-05-01 08:47 -17.19441 23.51752 36083 ft 487 kts 336°
2026-05-01 08:47 -17.13145 23.49104 36084 ft 487 kts 336°
2026-05-01 08:48 -17.06849 23.46458 36082 ft 488 kts 336°
2026-05-01 08:48 -17.00545 23.43811 36080 ft 488 kts 336°
2026-05-01 08:49 -16.94226 23.41161 36079 ft 488 kts 336°
2026-05-01 08:49 -16.87949 23.38531 36076 ft 489 kts 336°
2026-05-01 08:50 -16.81633 23.35885 36078 ft 489 kts 336°
2026-05-01 08:50 -16.75303 23.33235 36078 ft 489 kts 336°
2026-05-01 08:51 -16.69018 23.30606 36076 ft 490 kts 336°
2026-05-01 08:51 -16.62689 23.27960 36072 ft 490 kts 336°
2026-05-01 08:52 -16.56351 23.25313 36075 ft 490 kts 336°
2026-05-01 08:52 -16.50006 23.22665 36074 ft 490 kts 336°
2026-05-01 08:53 -16.43704 23.20036 36071 ft 491 kts 336°
2026-05-01 08:53 -16.37359 23.17392 36071 ft 491 kts 336°
2026-05-01 08:54 -16.30998 23.14743 36074 ft 491 kts 336°
2026-05-01 08:54 -16.24652 23.12101 36074 ft 491 kts 336°
2026-05-01 08:55 -16.18297 23.09458 36072 ft 492 kts 336°
2026-05-01 08:55 -16.11979 23.06832 36072 ft 492 kts 336°
2026-05-01 08:56 -16.05612 23.04187 36072 ft 492 kts 336°
2026-05-01 08:56 -15.99244 23.01544 36072 ft 492 kts 336°
2026-05-01 08:57 -15.92874 22.98902 36071 ft 493 kts 336°
2026-05-01 08:57 -15.86500 22.96259 36073 ft 493 kts 336°
2026-05-01 08:58 -15.80131 22.93622 36070 ft 493 kts 336°
2026-05-01 08:58 -15.73753 22.90981 36070 ft 493 kts 336°
2026-05-01 08:59 -15.67378 22.88344 36074 ft 494 kts 337°
2026-05-01 08:59 -15.61005 22.85694 36074 ft 494 kts 336°
2026-05-01 09:00 -15.54701 22.82849 36071 ft 493 kts 334°
2026-05-01 09:00 -15.48475 22.79957 36069 ft 493 kts 334°
2026-05-01 09:01 -15.42196 22.77070 36069 ft 494 kts 335°
2026-05-01 09:01 -15.35908 22.74210 36071 ft 494 kts 335°
2026-05-01 09:02 -15.29606 22.71355 36092 ft 494 kts 335°
2026-05-01 09:02 -15.23302 22.68500 36073 ft 494 kts 335°
2026-05-01 09:03 -15.16997 22.65646 36076 ft 494 kts 335°
2026-05-01 09:03 -15.10697 22.62794 36074 ft 494 kts 335°
2026-05-01 09:04 -15.04394 22.59942 36072 ft 494 kts 335°
2026-05-01 09:04 -14.98089 22.57092 36070 ft 494 kts 335°
2026-05-01 09:05 -14.91784 22.54244 36068 ft 495 kts 335°
2026-05-01 09:05 -14.85516 22.51415 36068 ft 495 kts 335°
2026-05-01 09:06 -14.79203 22.48568 36065 ft 495 kts 335°
2026-05-01 09:06 -14.72889 22.45722 36062 ft 495 kts 335°
2026-05-01 09:07 -14.66566 22.42874 36062 ft 495 kts 335°
2026-05-01 09:07 -14.60243 22.40026 36062 ft 495 kts 335°
2026-05-01 09:08 -14.53922 22.37181 36060 ft 496 kts 335°
2026-05-01 09:08 -14.47596 22.34336 36056 ft 496 kts 335°
2026-05-01 09:09 -14.41272 22.31495 36056 ft 496 kts 335°
2026-05-01 09:09 -14.34846 22.28873 36057 ft 497 kts 339°
2026-05-01 09:10 -14.28331 22.26472 36054 ft 497 kts 339°
2026-05-01 09:10 -14.21812 22.24058 36052 ft 497 kts 339°
2026-05-01 09:11 -14.15311 22.21597 36050 ft 498 kts 339°
2026-05-01 09:11 -14.08856 22.19132 36052 ft 498 kts 338°
2026-05-01 09:12 -14.02361 22.16650 36050 ft 498 kts 338°
2026-05-01 09:12 -13.95852 22.14164 36052 ft 498 kts 338°
2026-05-01 09:13 -13.90404 22.12086 36049 ft 498 kts 338°
2026-05-01 09:13 -13.83899 22.09608 36049 ft 499 kts 338°
2026-05-01 09:14 -13.77422 22.07140 36046 ft 499 kts 338°
2026-05-01 09:14 -13.70907 22.04662 36048 ft 499 kts 338°
2026-05-01 09:15 -13.64377 22.02179 36043 ft 500 kts 338°
2026-05-01 09:15 -13.57844 21.99695 36043 ft 500 kts 338°
2026-05-01 09:16 -13.51315 21.97197 36038 ft 500 kts 338°
2026-05-01 09:17 -13.41524 21.93439 36041 ft 501 kts 338°
2026-05-01 09:17 -13.31722 21.89691 36036 ft 501 kts 338°
2026-05-01 09:18 -13.21905 21.85931 36037 ft 502 kts 339°
2026-05-01 09:19 -13.12133 21.82192 36033 ft 502 kts 339°
2026-05-01 09:20 -13.02297 21.78445 36032 ft 502 kts 338°
2026-05-01 09:21 -12.89214 21.73353 36029 ft 502 kts 337°
2026-05-01 09:21 -12.79500 21.69309 36027 ft 502 kts 337°
2026-05-01 09:22 -12.66549 21.63973 36026 ft 503 kts 337°
2026-05-01 09:23 -12.56792 21.59980 36025 ft 503 kts 337°
2026-05-01 09:24 -12.47027 21.55985 36028 ft 504 kts 337°
2026-05-01 09:25 -12.33998 21.50661 36030 ft 504 kts 337°
2026-05-01 09:26 -12.24257 21.46685 36025 ft 504 kts 337°
2026-05-01 09:26 -12.14471 21.42692 36024 ft 505 kts 337°
2026-05-01 09:27 -12.04682 21.38700 36029 ft 505 kts 337°
2026-05-01 09:28 -11.98155 21.36041 36031 ft 505 kts 337°
2026-05-01 09:28 -11.91623 21.33380 36029 ft 505 kts 337°
2026-05-01 09:29 -11.81825 21.29393 36030 ft 505 kts 337°
2026-05-01 09:30 -11.72026 21.25408 36028 ft 505 kts 338°
2026-05-01 09:30 -11.62260 21.21442 36029 ft 505 kts 338°
2026-05-01 09:31 -11.55720 21.18786 36030 ft 505 kts 338°
2026-05-01 09:32 -11.45916 21.14807 36027 ft 505 kts 338°
2026-05-01 09:32 -11.36113 21.10832 36031 ft 505 kts 338°
2026-05-01 09:33 -11.29567 21.08180 36034 ft 506 kts 338°
2026-05-01 09:34 -11.19757 21.04206 36034 ft 505 kts 338°
2026-05-01 09:34 -11.09957 21.00240 36033 ft 505 kts 338°
2026-05-01 09:35 -11.00148 20.96274 36032 ft 505 kts 338°
2026-05-01 09:36 -10.93609 20.93632 36032 ft 505 kts 338°
2026-05-01 09:36 -10.87076 20.90992 36030 ft 505 kts 338°
2026-05-01 09:37 -10.80584 20.88371 36031 ft 505 kts 338°
2026-05-01 09:37 -10.70785 20.84417 36036 ft 505 kts 338°
2026-05-01 09:38 -10.60983 20.80464 36036 ft 505 kts 338°
2026-05-01 09:39 -10.51177 20.76512 36036 ft 505 kts 338°
2026-05-01 09:39 -10.44646 20.73882 36035 ft 505 kts 338°
2026-05-01 09:40 -10.34844 20.69936 36036 ft 505 kts 338°
2026-05-01 09:41 -10.28349 20.67323 36037 ft 505 kts 338°
2026-05-01 09:41 -10.18532 20.63376 36036 ft 506 kts 338°
2026-05-01 09:42 -10.11980 20.60743 36041 ft 506 kts 338°
2026-05-01 09:43 -9.98888 20.55485 36040 ft 506 kts 338°
2026-05-01 09:43 -9.92380 20.52874 36044 ft 506 kts 338°
2026-05-01 09:44 -9.82557 20.48934 36043 ft 506 kts 338°
2026-05-01 09:45 -9.76003 20.46306 36044 ft 506 kts 338°
2026-05-01 09:45 -9.66032 20.42792 36047 ft 506 kts 345°
2026-05-01 09:46 -9.59186 20.41111 36040 ft 506 kts 347°
2026-05-01 09:46 -9.52317 20.39527 36039 ft 506 kts 347°
2026-05-01 09:47 -9.45444 20.37945 36040 ft 506 kts 347°
2026-05-01 09:47 -9.38576 20.36348 36042 ft 506 kts 347°
2026-05-01 09:48 -9.31758 20.34755 36037 ft 506 kts 347°
2026-05-01 09:48 -9.24892 20.33149 36041 ft 506 kts 347°
2026-05-01 09:49 -9.18030 20.31546 36042 ft 506 kts 347°
2026-05-01 09:49 -9.11166 20.29944 36039 ft 506 kts 347°
2026-05-01 09:50 -9.04304 20.28342 36033 ft 506 kts 347°
2026-05-01 09:50 -8.97449 20.26743 36033 ft 505 kts 347°
2026-05-01 09:51 -8.90594 20.25145 36039 ft 505 kts 347°
2026-05-01 09:51 -8.83745 20.23549 36034 ft 505 kts 347°
2026-05-01 09:52 -8.76897 20.21953 36034 ft 505 kts 347°
2026-05-01 09:52 -8.71209 20.20628 36034 ft 504 kts 347°
2026-05-01 09:53 -8.63250 20.18775 36031 ft 505 kts 347°
2026-05-01 09:53 -8.57504 20.17438 36029 ft 505 kts 347°
2026-05-01 09:54 -8.50696 20.15854 36033 ft 505 kts 347°
2026-05-01 09:54 -8.43839 20.14259 36035 ft 505 kts 347°
2026-05-01 09:55 -8.36985 20.12665 36038 ft 505 kts 347°
2026-05-01 09:55 -8.30126 20.11071 36032 ft 505 kts 347°
2026-05-01 09:56 -8.23272 20.09479 36033 ft 505 kts 347°
2026-05-01 09:56 -8.16411 20.07886 36034 ft 505 kts 347°
2026-05-01 09:57 -8.09564 20.06296 36030 ft 504 kts 347°
2026-05-01 09:57 -8.02771 20.04719 36031 ft 504 kts 347°
2026-05-01 09:58 -7.95944 20.03140 36034 ft 503 kts 347°
2026-05-01 09:58 -7.89111 20.01580 36027 ft 503 kts 348°
2026-05-01 09:59 -7.82276 20.00024 36027 ft 503 kts 347°
2026-05-01 09:59 -7.75440 19.98466 36027 ft 503 kts 348°
2026-05-01 10:00 -7.68610 19.96908 36021 ft 503 kts 348°
2026-05-01 10:00 -7.61789 19.95353 36020 ft 503 kts 348°
2026-05-01 10:01 -7.54964 19.93796 36025 ft 503 kts 348°
2026-05-01 10:01 -7.48142 19.92242 36021 ft 503 kts 348°
2026-05-01 10:02 -7.41355 19.90696 36013 ft 503 kts 348°
2026-05-01 10:02 -7.34506 19.89135 36021 ft 504 kts 348°
2026-05-01 10:03 -7.27643 19.87571 36020 ft 505 kts 348°
2026-05-01 10:03 -7.20778 19.86014 36009 ft 505 kts 348°
2026-05-01 10:04 -7.13908 19.84481 36019 ft 505 kts 348°
2026-05-01 10:04 -7.07038 19.82954 36012 ft 505 kts 348°
2026-05-01 10:05 -7.00214 19.81436 36009 ft 506 kts 348°
2026-05-01 10:05 -6.93338 19.79904 36008 ft 505 kts 348°
2026-05-01 10:06 -6.86471 19.78373 36011 ft 506 kts 348°
2026-05-01 10:06 -6.79590 19.76839 36002 ft 506 kts 348°
2026-05-01 10:07 -6.72722 19.75267 36004 ft 506 kts 347°
2026-05-01 10:07 -6.65895 19.73539 36002 ft 506 kts 346°
2026-05-01 10:08 -6.55659 19.70923 36000 ft 505 kts 346°
2026-05-01 10:09 -6.48876 19.69219 36003 ft 505 kts 346°
2026-05-01 10:09 -6.42056 19.67517 35997 ft 505 kts 346°
2026-05-01 10:10 -6.35216 19.65810 35998 ft 505 kts 346°
2026-05-01 10:10 -6.24976 19.63255 35994 ft 505 kts 346°
2026-05-01 10:11 -6.18156 19.61553 35995 ft 505 kts 346°
2026-05-01 10:11 -6.11332 19.59850 35994 ft 505 kts 346°
2026-05-01 10:12 -6.04505 19.58147 36002 ft 505 kts 347°
2026-05-01 10:13 -5.94274 19.55596 35997 ft 505 kts 347°
2026-05-01 10:13 -5.87496 19.53907 35994 ft 504 kts 347°
2026-05-01 10:14 -5.77362 19.51026 35998 ft 504 kts 341°
2026-05-01 10:14 -5.70749 19.48647 35995 ft 504 kts 340°
2026-05-01 10:15 -5.64137 19.46282 35998 ft 504 kts 341°
2026-05-01 10:15 -5.57546 19.44004 35994 ft 504 kts 342°
2026-05-01 10:16 -5.50859 19.41731 35990 ft 504 kts 342°
2026-05-01 10:17 -5.40937 19.38367 35991 ft 504 kts 342°
2026-05-01 10:17 -5.30961 19.34981 35988 ft 504 kts 342°
2026-05-01 10:18 -5.20991 19.31595 35986 ft 504 kts 342°
2026-05-01 10:19 -5.14298 19.29489 35984 ft 504 kts 347°
2026-05-01 10:19 -5.07442 19.28015 35983 ft 503 kts 349°
2026-05-01 10:20 -4.97124 19.26019 35978 ft 503 kts 350°
2026-05-01 10:20 -4.90250 19.24695 35975 ft 503 kts 349°
2026-05-01 10:21 -4.79971 19.22692 35972 ft 503 kts 349°
2026-05-01 10:22 -4.69687 19.20682 35970 ft 503 kts 349°
2026-05-01 10:23 -4.59358 19.18665 35968 ft 503 kts 349°
2026-05-01 10:23 -4.49038 19.16651 35970 ft 503 kts 349°
2026-05-01 10:24 -4.35267 19.13964 35966 ft 503 kts 349°
2026-05-01 10:25 -4.21510 19.11280 35963 ft 503 kts 349°
2026-05-01 10:26 -4.14672 19.09946 35963 ft 504 kts 349°
2026-05-01 10:27 -4.00901 19.07262 35964 ft 504 kts 349°
2026-05-01 10:28 -3.90574 19.05249 36279 ft 504 kts 349°
2026-05-01 10:28 -3.83699 19.03914 36880 ft 501 kts 349°
2026-05-01 10:28 -3.80279 19.03247 37164 ft 500 kts 349°
2026-05-01 10:29 -3.73454 19.01915 37667 ft 498 kts 349°
2026-05-01 10:29 -3.70093 19.01259 37901 ft 498 kts 349°
2026-05-01 10:30 -3.56499 18.98604 37968 ft 498 kts 350°
2026-05-01 10:31 -3.42859 18.95953 37971 ft 499 kts 350°
2026-05-01 10:32 -3.32638 18.93968 37971 ft 498 kts 350°
2026-05-01 10:33 -3.19068 18.91327 37975 ft 498 kts 350°
2026-05-01 10:34 -3.08863 18.89342 37977 ft 498 kts 350°
2026-05-01 10:34 -3.02042 18.88016 37967 ft 498 kts 350°
2026-05-01 10:35 -2.91856 18.86035 37963 ft 499 kts 350°
2026-05-01 10:35 -2.85034 18.84708 37965 ft 499 kts 350°
2026-05-01 10:36 -2.75894 18.82932 37969 ft 500 kts 350°
2026-05-01 10:37 -2.69103 18.81615 37970 ft 501 kts 350°
2026-05-01 10:37 -2.58824 18.79620 37970 ft 502 kts 350°
2026-05-01 10:38 -2.51958 18.78286 37961 ft 503 kts 350°
2026-05-01 10:38 -2.45084 18.76951 37963 ft 503 kts 350°
2026-05-01 10:39 -2.38198 18.75615 37961 ft 504 kts 350°
2026-05-01 10:39 -2.31299 18.74277 37962 ft 504 kts 350°
2026-05-01 10:40 -2.24447 18.72947 37964 ft 504 kts 350°
2026-05-01 10:40 -2.17560 18.71612 37961 ft 504 kts 350°
2026-05-01 10:41 -2.10666 18.70275 37966 ft 504 kts 350°
2026-05-01 10:42 -2.00347 18.68274 37964 ft 503 kts 350°
2026-05-01 10:42 -1.93468 18.66940 37958 ft 503 kts 350°
2026-05-01 10:43 -1.86583 18.65606 37962 ft 503 kts 350°
2026-05-01 10:43 -1.79710 18.64273 37953 ft 503 kts 350°
2026-05-01 10:44 -1.72870 18.62947 37960 ft 503 kts 350°
2026-05-01 10:44 -1.65997 18.61615 37964 ft 503 kts 350°
2026-05-01 10:45 -1.59115 18.60281 37955 ft 503 kts 350°
2026-05-01 10:45 -1.52240 18.58949 37957 ft 503 kts 350°
2026-05-01 10:46 -1.45368 18.57618 37965 ft 503 kts 350°
2026-05-01 10:46 -1.38484 18.56283 37956 ft 504 kts 350°
2026-05-01 10:47 -1.31647 18.54958 37962 ft 504 kts 350°
2026-05-01 10:47 -1.24757 18.53624 37956 ft 504 kts 350°
2026-05-01 10:48 -1.17868 18.52289 37953 ft 504 kts 350°
2026-05-01 10:48 -1.10972 18.50953 37959 ft 505 kts 350°
2026-05-01 10:49 -1.04072 18.49616 37950 ft 505 kts 350°
2026-05-01 10:49 -0.97167 18.48278 37953 ft 505 kts 350°
2026-05-01 10:50 -0.90266 18.46942 37947 ft 505 kts 350°
2026-05-01 10:50 -0.83399 18.45611 37949 ft 506 kts 350°
2026-05-01 10:51 -0.76495 18.44274 37942 ft 506 kts 350°
2026-05-01 10:51 -0.69571 18.42932 37942 ft 506 kts 350°
2026-05-01 10:52 -0.62652 18.41592 37955 ft 506 kts 350°
2026-05-01 10:52 -0.55732 18.40253 37936 ft 506 kts 350°
2026-05-01 10:53 -0.48810 18.38913 37946 ft 507 kts 350°
2026-05-01 10:53 -0.41878 18.37570 37938 ft 507 kts 350°
2026-05-01 10:54 -0.34991 18.36236 37942 ft 507 kts 350°
2026-05-01 10:54 -0.28062 18.34894 37932 ft 507 kts 350°
2026-05-01 10:55 -0.21124 18.33550 37944 ft 507 kts 350°
2026-05-01 10:55 -0.14192 18.32208 37941 ft 507 kts 350°
2026-05-01 10:56 -0.07256 18.30865 37936 ft 507 kts 350°
2026-05-01 10:56 -0.00330 18.29523 37931 ft 507 kts 350°
2026-05-01 10:57 0.06599 18.28156 37926 ft 508 kts 348°
2026-05-01 10:57 0.13456 18.26396 37930 ft 508 kts 345°
2026-05-01 10:58 0.20264 18.24468 37928 ft 509 kts 345°
2026-05-01 10:58 0.27047 18.22590 37928 ft 509 kts 346°
2026-05-01 10:59 0.33905 18.20749 37927 ft 509 kts 346°
2026-05-01 10:59 0.40773 18.18928 37923 ft 510 kts 346°
2026-05-01 11:00 0.47596 18.17120 37919 ft 510 kts 346°
2026-05-01 11:00 0.54465 18.15297 37922 ft 510 kts 346°
2026-05-01 11:01 0.61331 18.13476 37924 ft 510 kts 346°
2026-05-01 11:01 0.68154 18.11674 37923 ft 510 kts 346°
2026-05-01 11:02 0.75025 18.09858 37913 ft 510 kts 346°
2026-05-01 11:02 0.81897 18.08041 37916 ft 511 kts 346°
2026-05-01 11:03 0.88770 18.06224 37916 ft 510 kts 346°
2026-05-01 11:03 0.95640 18.04409 37919 ft 510 kts 346°
2026-05-01 11:04 1.02501 18.02596 37917 ft 510 kts 346°
2026-05-01 11:04 1.09314 18.00795 37916 ft 509 kts 346°
2026-05-01 11:05 1.16165 17.98984 37909 ft 509 kts 346°
2026-05-01 11:05 1.23017 17.97172 37908 ft 509 kts 346°
2026-05-01 11:06 1.29864 17.95362 37909 ft 509 kts 346°
2026-05-01 11:06 1.36720 17.93550 37908 ft 509 kts 346°
2026-05-01 11:07 1.46941 17.90845 37908 ft 509 kts 346°
2026-05-01 11:07 1.53788 17.89032 37904 ft 509 kts 346°
2026-05-01 11:08 1.60637 17.87218 37906 ft 509 kts 346°
2026-05-01 11:09 1.70916 17.84496 37903 ft 509 kts 346°
2026-05-01 11:09 1.77776 17.82680 37911 ft 510 kts 346°
2026-05-01 11:10 1.88092 17.79954 37909 ft 511 kts 346°
2026-05-01 11:10 1.94925 17.78145 37905 ft 511 kts 346°
2026-05-01 11:11 2.01816 17.76321 37905 ft 512 kts 346°
2026-05-01 11:11 2.08708 17.74497 37904 ft 512 kts 346°
2026-05-01 11:12 2.15559 17.72684 37902 ft 512 kts 346°
2026-05-01 11:12 2.22457 17.70860 37904 ft 512 kts 346°
2026-05-01 11:13 2.29363 17.69037 37904 ft 512 kts 346°
2026-05-01 11:13 2.36265 17.67217 37908 ft 513 kts 346°
2026-05-01 11:14 2.43164 17.65398 37905 ft 513 kts 346°
2026-05-01 11:14 2.50019 17.63581 37907 ft 513 kts 346°
2026-05-01 11:15 2.56923 17.61750 37910 ft 513 kts 346°
2026-05-01 11:15 2.63827 17.59920 37907 ft 512 kts 346°
2026-05-01 11:16 2.70719 17.58095 37908 ft 512 kts 346°
2026-05-01 11:16 2.77627 17.56266 37907 ft 512 kts 346°
2026-05-01 11:17 2.84487 17.54450 37910 ft 512 kts 346°
2026-05-01 11:17 2.91390 17.52621 37908 ft 512 kts 346°
2026-05-01 11:18 2.98276 17.50797 37910 ft 512 kts 346°
2026-05-01 11:18 3.05174 17.48969 37911 ft 512 kts 346°
2026-05-01 11:19 3.12032 17.47152 37910 ft 512 kts 346°
2026-05-01 11:19 3.18932 17.45323 37911 ft 512 kts 346°
2026-05-01 11:20 3.25822 17.43496 37914 ft 512 kts 346°
2026-05-01 11:20 3.32709 17.41671 37913 ft 512 kts 346°
2026-05-01 11:21 3.39560 17.39854 37912 ft 512 kts 346°
2026-05-01 11:21 3.46452 17.38027 37915 ft 512 kts 346°
2026-05-01 11:22 3.53344 17.36198 37918 ft 512 kts 346°
2026-05-01 11:22 3.60235 17.34371 37920 ft 512 kts 346°
2026-05-01 11:23 3.67118 17.32544 37929 ft 512 kts 346°
2026-05-01 11:23 3.74010 17.30716 37925 ft 512 kts 346°
2026-05-01 11:24 3.80854 17.28899 37923 ft 512 kts 346°
2026-05-01 11:25 3.90024 17.26462 37926 ft 512 kts 346°
2026-05-01 11:25 4.00354 17.23717 37922 ft 511 kts 346°
2026-05-01 11:26 4.10676 17.20974 37924 ft 511 kts 346°
2026-05-01 11:27 4.17515 17.19156 37926 ft 511 kts 346°
2026-05-01 11:27 4.24394 17.17328 37942 ft 511 kts 346°
2026-05-01 11:27 4.27833 17.16414 38090 ft 512 kts 346°
2026-05-01 11:28 4.31279 17.15498 38344 ft 511 kts 346°
2026-05-01 11:28 4.34673 17.14599 38573 ft 510 kts 346°
2026-05-01 11:28 4.38100 17.13689 38772 ft 510 kts 346°
2026-05-01 11:29 4.44950 17.11868 39169 ft 508 kts 346°
2026-05-01 11:29 4.48363 17.10961 39357 ft 507 kts 346°
2026-05-01 11:29 4.55177 17.09150 39751 ft 505 kts 346°
2026-05-01 11:30 4.58576 17.08247 39901 ft 505 kts 346°
2026-05-01 11:30 4.65349 17.06448 39921 ft 506 kts 346°
2026-05-01 11:31 4.72153 17.04638 39923 ft 505 kts 346°
2026-05-01 11:31 4.78947 17.02828 39916 ft 505 kts 346°
2026-05-01 11:32 4.85744 17.01017 39909 ft 505 kts 346°
2026-05-01 11:32 4.92532 16.99209 39918 ft 504 kts 346°
2026-05-01 11:33 4.99312 16.97403 39913 ft 504 kts 346°
2026-05-01 11:33 5.06099 16.95598 39912 ft 504 kts 346°
2026-05-01 11:34 5.12873 16.93796 39917 ft 504 kts 346°
2026-05-01 11:34 5.19647 16.91987 39912 ft 503 kts 346°
2026-05-01 11:35 5.26378 16.90192 39908 ft 503 kts 346°
2026-05-01 11:35 5.33150 16.88387 39910 ft 503 kts 346°
2026-05-01 11:36 5.39916 16.86583 39908 ft 503 kts 346°
2026-05-01 11:36 5.46680 16.84779 39901 ft 503 kts 346°
2026-05-01 11:37 5.53441 16.82976 39907 ft 503 kts 346°
2026-05-01 11:37 5.60205 16.81170 39908 ft 503 kts 346°
2026-05-01 11:38 5.66966 16.79366 39898 ft 502 kts 346°
2026-05-01 11:38 5.73734 16.77559 39902 ft 502 kts 346°
2026-05-01 11:39 5.80446 16.75767 39898 ft 502 kts 346°
2026-05-01 11:39 5.87204 16.73962 39895 ft 502 kts 346°
2026-05-01 11:40 5.93965 16.72156 39892 ft 502 kts 346°
2026-05-01 11:40 6.00725 16.70349 39890 ft 502 kts 346°
2026-05-01 11:41 6.07482 16.68543 39895 ft 502 kts 346°
2026-05-01 11:41 6.14250 16.66734 39884 ft 502 kts 346°
2026-05-01 11:42 6.21009 16.64929 39885 ft 502 kts 346°
2026-05-01 11:42 6.27714 16.63137 39883 ft 502 kts 346°
2026-05-01 11:43 6.34470 16.61328 39883 ft 502 kts 346°
2026-05-01 11:43 6.41225 16.59520 39879 ft 502 kts 346°
2026-05-01 11:44 6.51351 16.56810 39871 ft 502 kts 346°
2026-05-01 11:44 6.58098 16.55004 39869 ft 502 kts 346°
2026-05-01 11:45 6.64850 16.53196 39866 ft 501 kts 346°
2026-05-01 11:45 6.71551 16.51402 39869 ft 501 kts 346°
2026-05-01 11:46 6.78302 16.49593 39864 ft 501 kts 346°
2026-05-01 11:46 6.85052 16.47785 39864 ft 501 kts 346°
2026-05-01 11:47 6.91792 16.45978 39852 ft 501 kts 346°
2026-05-01 11:47 6.98530 16.44171 39849 ft 501 kts 346°
2026-05-01 11:48 7.05266 16.42364 39854 ft 500 kts 346°
2026-05-01 11:48 7.11954 16.40569 39849 ft 500 kts 346°
2026-05-01 11:49 7.18678 16.38765 39846 ft 499 kts 346°
2026-05-01 11:49 7.25388 16.36964 39846 ft 499 kts 346°
2026-05-01 11:50 7.32093 16.35165 39847 ft 498 kts 346°
2026-05-01 11:50 7.38803 16.33364 39847 ft 498 kts 346°
2026-05-01 11:51 7.45500 16.31562 39843 ft 498 kts 346°
2026-05-01 11:51 7.52189 16.29762 39843 ft 497 kts 346°
2026-05-01 11:52 7.58871 16.27965 39836 ft 497 kts 346°
2026-05-01 11:52 7.65555 16.26168 39836 ft 497 kts 346°
2026-05-01 11:53 7.72191 16.24382 39832 ft 497 kts 346°
2026-05-01 11:53 7.78881 16.22582 39833 ft 496 kts 346°
2026-05-01 11:54 7.85555 16.20785 39833 ft 496 kts 346°
2026-05-01 11:54 7.92227 16.18987 39832 ft 495 kts 346°
2026-05-01 11:55 7.98900 16.17190 39833 ft 495 kts 346°
2026-05-01 11:55 8.05560 16.15398 39829 ft 495 kts 346°
2026-05-01 11:56 8.12177 16.13611 39832 ft 495 kts 346°
2026-05-01 11:56 8.18831 16.11813 39823 ft 496 kts 346°
2026-05-01 11:57 8.24420 16.10303 39827 ft 497 kts 346°
2026-05-01 11:57 8.32202 16.08201 39816 ft 498 kts 346°
2026-05-01 11:58 8.38911 16.06389 39818 ft 499 kts 346°
2026-05-01 11:59 8.49005 16.03660 39823 ft 501 kts 346°
2026-05-01 11:59 8.55769 16.01831 39814 ft 502 kts 346°
2026-05-01 12:00 8.65896 15.99090 39816 ft 501 kts 346°
2026-05-01 12:01 8.75956 15.96367 39818 ft 500 kts 346°
2026-05-01 12:01 8.82683 15.94545 39815 ft 500 kts 346°
2026-05-01 12:02 8.89405 15.92723 39807 ft 499 kts 346°
2026-05-01 12:02 8.96117 15.90906 39814 ft 499 kts 346°
2026-05-01 12:03 9.02820 15.89088 39814 ft 498 kts 346°
2026-05-01 12:03 9.09522 15.87269 39808 ft 498 kts 346°
2026-05-01 12:04 9.16170 15.85465 39802 ft 498 kts 346°
2026-05-01 12:04 9.22859 15.83649 39807 ft 497 kts 346°
2026-05-01 12:05 9.29543 15.81834 39812 ft 497 kts 346°
2026-05-01 12:05 9.39568 15.79110 39810 ft 497 kts 346°
2026-05-01 12:06 9.46254 15.77294 39814 ft 497 kts 346°
2026-05-01 12:06 9.52926 15.75482 39810 ft 496 kts 346°
2026-05-01 12:07 9.59606 15.73668 39812 ft 496 kts 346°
2026-05-01 12:07 9.66281 15.71854 39805 ft 496 kts 346°
2026-05-01 12:08 9.71831 15.70345 39814 ft 496 kts 346°
2026-05-01 12:08 9.78496 15.68533 39806 ft 496 kts 346°
2026-05-01 12:09 9.85171 15.66717 39812 ft 496 kts 346°
2026-05-01 12:09 9.91838 15.64903 39807 ft 496 kts 346°
2026-05-01 12:10 10.01836 15.62180 39808 ft 495 kts 346°
2026-05-01 12:11 10.11777 15.59471 39814 ft 495 kts 346°
2026-05-01 12:11 10.18440 15.57654 39804 ft 495 kts 346°
2026-05-01 12:12 10.25105 15.55834 39814 ft 495 kts 346°
2026-05-01 12:12 10.31760 15.54014 39806 ft 495 kts 346°
2026-05-01 12:13 10.38414 15.52194 39806 ft 495 kts 346°
2026-05-01 12:13 10.45075 15.50372 39816 ft 495 kts 346°
2026-05-01 12:14 10.51733 15.48550 39808 ft 495 kts 346°
2026-05-01 12:14 10.58386 15.46729 39812 ft 495 kts 346°
2026-05-01 12:15 10.65045 15.44905 39813 ft 495 kts 346°
2026-05-01 12:15 10.71706 15.43080 39810 ft 495 kts 345°
2026-05-01 12:16 10.78365 15.41255 39811 ft 495 kts 345°
2026-05-01 12:16 10.84978 15.39441 39819 ft 495 kts 345°
2026-05-01 12:17 10.91641 15.37613 39813 ft 495 kts 345°
2026-05-01 12:17 10.98295 15.35786 39811 ft 495 kts 345°
2026-05-01 12:18 11.04951 15.33958 39815 ft 495 kts 345°
2026-05-01 12:18 11.11615 15.32125 39816 ft 496 kts 345°
2026-05-01 12:19 11.18282 15.30293 39817 ft 496 kts 345°
2026-05-01 12:19 11.24940 15.28463 39818 ft 496 kts 345°
2026-05-01 12:20 11.31564 15.26640 39819 ft 496 kts 345°
2026-05-01 12:20 11.38273 15.24793 39821 ft 496 kts 345°
2026-05-01 12:21 11.44886 15.22978 39825 ft 496 kts 345°
2026-05-01 12:21 11.51550 15.21141 39819 ft 495 kts 345°
2026-05-01 12:22 11.58200 15.19304 39824 ft 495 kts 345°
2026-05-01 12:22 11.64859 15.17466 39819 ft 495 kts 345°
2026-05-01 12:23 11.71517 15.15629 39826 ft 495 kts 345°
2026-05-01 12:23 11.78168 15.13792 39827 ft 495 kts 345°
2026-05-01 12:24 11.84816 15.11955 39830 ft 495 kts 345°
2026-05-01 12:24 11.91482 15.10166 39829 ft 495 kts 347°
2026-05-01 12:25 12.01487 15.07498 39830 ft 495 kts 346°
2026-05-01 12:26 12.08128 15.05645 39823 ft 495 kts 345°
2026-05-01 12:26 12.18068 15.02760 39830 ft 495 kts 343°
2026-05-01 12:27 12.27912 14.99681 39829 ft 495 kts 342°
2026-05-01 12:28 12.37814 14.96604 39830 ft 495 kts 343°
2026-05-01 12:29 12.47741 14.93570 39836 ft 496 kts 343°
2026-05-01 12:29 12.57668 14.90531 39831 ft 497 kts 343°
2026-05-01 12:30 12.67612 14.87477 39840 ft 497 kts 343°
2026-05-01 12:31 12.74197 14.85455 39833 ft 497 kts 343°
2026-05-01 12:31 12.80837 14.83416 39835 ft 498 kts 343°
2026-05-01 12:32 12.87481 14.81376 39835 ft 498 kts 343°
2026-05-01 12:32 12.97459 14.78309 39839 ft 498 kts 343°
2026-05-01 12:33 13.04114 14.76263 39840 ft 498 kts 343°
2026-05-01 12:33 13.10748 14.74221 39839 ft 498 kts 343°
2026-05-01 12:34 13.17389 14.72176 39838 ft 498 kts 343°
2026-05-01 12:34 13.24028 14.70129 39834 ft 498 kts 343°
2026-05-01 12:35 13.30628 14.68095 39835 ft 497 kts 343°
2026-05-01 12:35 13.37257 14.66050 39836 ft 497 kts 343°
2026-05-01 12:36 13.43890 14.64003 39839 ft 498 kts 343°
2026-05-01 12:36 13.50538 14.61950 39835 ft 498 kts 343°
2026-05-01 12:37 13.57184 14.59897 39829 ft 499 kts 343°
2026-05-01 12:37 13.63841 14.57838 39834 ft 499 kts 343°
2026-05-01 12:38 13.70499 14.55778 39827 ft 499 kts 343°
2026-05-01 12:38 13.77161 14.53715 39832 ft 500 kts 343°
2026-05-01 12:39 13.83828 14.51651 39831 ft 500 kts 343°
2026-05-01 12:39 13.90457 14.49597 39838 ft 500 kts 343°
2026-05-01 12:40 13.97127 14.47528 39834 ft 500 kts 342°
2026-05-01 12:40 14.03796 14.45457 39832 ft 501 kts 342°
2026-05-01 12:41 14.10472 14.43385 39838 ft 501 kts 342°
2026-05-01 12:41 14.17155 14.41308 39832 ft 501 kts 342°
2026-05-01 12:42 14.23830 14.39232 39834 ft 501 kts 342°
2026-05-01 12:42 14.30502 14.37156 39842 ft 500 kts 342°
2026-05-01 12:43 14.37175 14.35078 39846 ft 500 kts 342°
2026-05-01 12:43 14.43833 14.33002 39842 ft 500 kts 342°
2026-05-01 12:44 14.50500 14.30924 39843 ft 500 kts 342°
2026-05-01 12:45 14.63784 14.26783 39843 ft 500 kts 342°
2026-05-01 12:45 14.70445 14.24704 39848 ft 500 kts 341°
2026-05-01 12:46 14.77093 14.22610 39848 ft 499 kts 342°
2026-05-01 12:46 14.82665 14.20872 39848 ft 499 kts 342°
2026-05-01 12:47 14.89266 14.18816 39852 ft 498 kts 342°
2026-05-01 12:47 14.95906 14.16728 39847 ft 498 kts 342°
2026-05-01 12:48 15.02538 14.14656 39857 ft 498 kts 342°
2026-05-01 12:48 15.09169 14.12589 39850 ft 498 kts 342°
2026-05-01 12:49 15.15807 14.10506 39865 ft 498 kts 342°
2026-05-01 12:49 15.22439 14.08420 39862 ft 498 kts 342°
2026-05-01 12:50 15.29076 14.06337 39858 ft 498 kts 342°
2026-05-01 12:50 15.35714 14.04254 39863 ft 498 kts 342°
2026-05-01 12:51 15.42338 14.02175 39851 ft 497 kts 342°
2026-05-01 12:52 15.52275 13.99045 39855 ft 497 kts 341°
2026-05-01 12:52 15.62200 13.95922 39857 ft 497 kts 341°
2026-05-01 12:53 15.72128 13.92792 39854 ft 496 kts 341°
2026-05-01 12:54 15.78735 13.90704 39853 ft 496 kts 341°
2026-05-01 12:54 15.88645 13.87575 39858 ft 496 kts 341°
2026-05-01 12:55 15.98507 13.84458 39864 ft 496 kts 341°
2026-05-01 12:56 16.05120 13.82365 39863 ft 496 kts 341°
2026-05-01 12:56 16.11719 13.80274 39865 ft 496 kts 341°
2026-05-01 12:57 16.18320 13.78183 39864 ft 495 kts 341°
2026-05-01 12:57 16.28215 13.75045 39865 ft 495 kts 341°
2026-05-01 12:58 16.34810 13.72951 39864 ft 495 kts 341°
2026-05-01 12:59 16.44695 13.69811 39866 ft 495 kts 341°
2026-05-01 12:59 16.54533 13.66681 39864 ft 494 kts 341°
2026-05-01 13:00 16.64408 13.63541 39866 ft 494 kts 341°
2026-05-01 13:01 16.74259 13.60398 39870 ft 493 kts 340°
2026-05-01 13:02 16.84112 13.57253 39868 ft 493 kts 340°
2026-05-01 13:07 17.55911 13.34238 39873 ft 488 kts 340°
2026-05-01 13:08 17.62409 13.32145 39874 ft 488 kts 340°
2026-05-01 13:08 17.68902 13.30050 39877 ft 488 kts 339°
2026-05-01 13:09 17.75348 13.27970 39877 ft 487 kts 339°
2026-05-01 13:09 17.81838 13.25875 39873 ft 487 kts 339°
2026-05-01 13:10 17.88322 13.23781 39875 ft 487 kts 339°
2026-05-01 13:10 17.94801 13.21686 39872 ft 487 kts 339°
2026-05-01 13:11 18.01285 13.19589 39877 ft 487 kts 339°
2026-05-01 13:11 18.07763 13.17491 39876 ft 487 kts 339°
2026-05-01 13:12 18.14243 13.15392 39877 ft 487 kts 339°
2026-05-01 13:12 18.20722 13.13291 39872 ft 487 kts 339°
2026-05-01 13:13 18.27199 13.11189 39874 ft 487 kts 339°
2026-05-01 13:13 18.33631 13.09100 39874 ft 487 kts 339°
2026-05-01 13:14 18.40146 13.06982 39875 ft 486 kts 339°
2026-05-01 13:14 18.46616 13.04878 39873 ft 486 kts 339°
2026-05-01 13:15 18.53041 13.02786 39869 ft 486 kts 339°
2026-05-01 13:15 18.59500 13.00682 39870 ft 486 kts 338°
2026-05-01 13:16 18.65962 12.98575 39873 ft 486 kts 338°
2026-05-01 13:16 18.72426 12.96466 39870 ft 485 kts 338°
2026-05-01 13:17 18.85338 12.92247 39864 ft 485 kts 338°
2026-05-01 13:18 18.94967 12.89094 39872 ft 484 kts 338°
2026-05-01 13:18 19.01041 12.86204 39871 ft 476 kts 326°
2026-05-01 13:19 19.06770 12.82698 39862 ft 475 kts 324°
2026-05-01 13:20 19.15238 12.77257 39864 ft 474 kts 324°
2026-05-01 13:20 19.20882 12.73632 39867 ft 474 kts 324°
2026-05-01 13:21 19.29362 12.68227 39868 ft 474 kts 324°
2026-05-01 13:21 19.35017 12.64628 39867 ft 474 kts 324°
2026-05-01 13:22 19.40671 12.61026 39868 ft 474 kts 324°
2026-05-01 13:22 19.46286 12.57444 39868 ft 474 kts 324°
2026-05-01 13:23 19.51944 12.53831 39869 ft 474 kts 324°
2026-05-01 13:23 19.57598 12.50218 39867 ft 474 kts 323°
2026-05-01 13:24 19.63250 12.46604 39868 ft 474 kts 323°
2026-05-01 13:25 19.71726 12.41178 39867 ft 474 kts 323°
2026-05-01 13:25 19.76425 12.38166 39868 ft 474 kts 323°
2026-05-01 13:26 19.82075 12.34543 39869 ft 474 kts 323°
2026-05-01 13:26 19.87705 12.30930 39865 ft 474 kts 323°
2026-05-01 13:27 19.93119 12.27452 39870 ft 475 kts 323°
2026-05-01 13:27 20.01596 12.22001 39871 ft 475 kts 323°
2026-05-01 13:28 20.10084 12.16536 39874 ft 475 kts 323°
2026-05-01 13:29 20.21396 12.09242 39873 ft 475 kts 323°
2026-05-01 13:31 20.38315 11.98309 39877 ft 475 kts 323°
2026-05-01 13:32 20.52412 11.89178 39876 ft 474 kts 322°
2026-05-01 13:33 20.66489 11.80037 39876 ft 473 kts 322°
2026-05-01 13:34 20.77715 11.72730 39877 ft 471 kts 322°
2026-05-01 13:35 20.86114 11.67256 39878 ft 470 kts 322°
2026-05-01 13:36 20.94456 11.61812 39879 ft 469 kts 322°
2026-05-01 13:36 21.02799 11.56360 39876 ft 468 kts 321°
2026-05-01 13:37 21.08356 11.52724 39878 ft 467 kts 321°
2026-05-01 13:37 21.13895 11.49099 39876 ft 466 kts 321°
2026-05-01 13:38 21.22198 11.43659 39882 ft 465 kts 321°
2026-05-01 13:39 21.27726 11.40029 39884 ft 465 kts 321°
2026-05-01 13:39 21.33237 11.36409 39876 ft 464 kts 321°
2026-05-01 13:40 21.38747 11.32787 39875 ft 464 kts 321°
2026-05-01 13:40 21.44215 11.29190 39877 ft 464 kts 321°
2026-05-01 13:41 21.49712 11.25570 39877 ft 463 kts 321°
2026-05-01 13:41 21.55199 11.21954 39874 ft 463 kts 321°
2026-05-01 13:42 21.60719 11.18313 39877 ft 462 kts 321°
2026-05-01 13:42 21.66165 11.14717 39881 ft 462 kts 321°
2026-05-01 13:43 21.71636 11.11102 39882 ft 461 kts 321°
2026-05-01 13:43 21.77098 11.07489 39880 ft 461 kts 321°
2026-05-01 13:44 21.82553 11.03878 39883 ft 460 kts 321°
2026-05-01 13:44 21.88006 11.00265 39883 ft 460 kts 320°
2026-05-01 13:45 21.93465 10.96644 39886 ft 460 kts 320°
2026-05-01 13:45 21.98918 10.93024 39888 ft 459 kts 320°
2026-05-01 13:46 22.04354 10.89413 39892 ft 459 kts 320°
2026-05-01 13:46 22.09792 10.85796 39892 ft 459 kts 320°
2026-05-01 13:47 22.15226 10.82179 39898 ft 459 kts 320°
2026-05-01 13:47 22.20653 10.78563 39896 ft 458 kts 320°
2026-05-01 13:48 22.26083 10.74942 39899 ft 458 kts 320°
2026-05-01 13:48 22.31500 10.71326 39893 ft 458 kts 320°
2026-05-01 13:49 22.36912 10.67710 39904 ft 457 kts 320°
2026-05-01 13:49 22.42324 10.64091 39892 ft 457 kts 320°
2026-05-01 13:50 22.47693 10.60497 39917 ft 457 kts 320°
2026-05-01 13:50 22.53101 10.56875 39903 ft 456 kts 319°
2026-05-01 13:51 22.58504 10.53251 39909 ft 456 kts 319°
2026-05-01 13:51 22.63905 10.49626 39910 ft 456 kts 319°
2026-05-01 13:52 22.69350 10.46126 39911 ft 458 kts 321°
2026-05-01 13:52 22.74875 10.42703 39914 ft 457 kts 321°
2026-05-01 13:53 22.80396 10.39284 39913 ft 457 kts 321°
2026-05-01 13:53 22.88661 10.34132 39910 ft 456 kts 321°
2026-05-01 13:54 22.94172 10.30708 39913 ft 456 kts 321°
2026-05-01 13:54 22.99668 10.27279 39911 ft 456 kts 321°
2026-05-01 13:55 23.05162 10.23835 39917 ft 455 kts 321°
2026-05-01 13:55 23.10644 10.20390 39915 ft 455 kts 320°
2026-05-01 13:56 23.16114 10.16949 39923 ft 454 kts 320°
2026-05-01 13:56 23.21587 10.13502 39922 ft 454 kts 320°
2026-05-01 13:57 23.26135 10.10637 39921 ft 454 kts 320°
2026-05-01 13:57 23.32518 10.06611 39924 ft 454 kts 320°
2026-05-01 13:58 23.37977 10.03165 39927 ft 453 kts 320°
2026-05-01 13:58 23.43434 9.99716 39929 ft 453 kts 320°
2026-05-01 13:59 23.48854 9.96288 39929 ft 453 kts 320°
2026-05-01 13:59 23.54307 9.92835 39936 ft 453 kts 320°
2026-05-01 14:00 23.59767 9.89375 39936 ft 453 kts 320°
2026-05-01 14:00 23.65208 9.85923 39941 ft 453 kts 320°
2026-05-01 14:01 23.70652 9.82465 39937 ft 453 kts 320°
2026-05-01 14:01 23.76101 9.79001 39942 ft 453 kts 320°
2026-05-01 14:02 23.81543 9.75538 39941 ft 452 kts 320°
2026-05-01 14:02 23.86983 9.72074 39951 ft 452 kts 320°
2026-05-01 14:03 23.91502 9.69193 39956 ft 452 kts 320°
2026-05-01 14:03 23.96935 9.65726 39955 ft 452 kts 320°
2026-05-01 14:04 24.02370 9.62255 39985 ft 452 kts 320°
2026-05-01 14:04 24.07802 9.58783 40021 ft 452 kts 320°
2026-05-01 14:05 24.13234 9.55308 40054 ft 451 kts 320°
2026-05-01 14:05 24.18623 9.51856 40091 ft 451 kts 320°
2026-05-01 14:06 24.24043 9.48381 40095 ft 451 kts 320°
2026-05-01 14:06 24.29752 9.45360 40103 ft 466 kts 331°
2026-05-01 14:07 24.36131 9.43589 40107 ft 476 kts 337°
2026-05-01 14:08 24.45898 9.41451 40067 ft 477 kts 338°
2026-05-01 14:08 24.52409 9.40066 40035 ft 476 kts 338°
2026-05-01 14:09 24.58904 9.38658 40011 ft 475 kts 338°
2026-05-01 14:09 24.65393 9.37224 39983 ft 475 kts 338°
2026-05-01 14:10 24.71830 9.35791 39988 ft 474 kts 338°
2026-05-01 14:10 24.78300 9.34349 39991 ft 474 kts 338°
2026-05-01 14:11 24.84777 9.32903 39991 ft 474 kts 338°
2026-05-01 14:11 24.94487 9.30734 39991 ft 475 kts 338°
2026-05-01 14:12 25.00968 9.29285 40000 ft 476 kts 338°
2026-05-01 14:12 25.07468 9.27831 39996 ft 476 kts 337°
2026-05-01 14:13 25.12859 9.26623 39998 ft 476 kts 337°
2026-05-01 14:13 25.20426 9.24927 39993 ft 476 kts 337°
2026-05-01 14:14 25.26908 9.23473 39989 ft 475 kts 337°
2026-05-01 14:14 25.33381 9.22018 39981 ft 474 kts 337°
2026-05-01 14:15 25.39848 9.20562 39973 ft 473 kts 337°
2026-05-01 14:15 25.46306 9.19107 39965 ft 472 kts 338°
2026-05-01 14:16 25.52749 9.17655 39963 ft 471 kts 338°
2026-05-01 14:16 25.59173 9.16204 39957 ft 471 kts 338°
2026-05-01 14:17 25.65553 9.14762 39953 ft 470 kts 338°
2026-05-01 14:17 25.71954 9.13313 39946 ft 469 kts 338°
2026-05-01 14:18 25.78357 9.11859 39941 ft 469 kts 338°
2026-05-01 14:18 25.83664 9.10656 39943 ft 468 kts 338°
2026-05-01 14:19 25.91118 9.08967 39933 ft 466 kts 338°
2026-05-01 14:19 25.97474 9.07521 39937 ft 466 kts 338°
2026-05-01 14:20 26.06995 9.05357 39935 ft 465 kts 338°
2026-05-01 14:21 26.13331 9.03928 39926 ft 464 kts 338°
2026-05-01 14:21 26.19658 9.02504 39929 ft 464 kts 338°
2026-05-01 14:22 26.29102 9.00368 39912 ft 463 kts 338°
2026-05-01 14:22 26.35428 8.98930 39911 ft 463 kts 338°
2026-05-01 14:23 26.41740 8.97498 39904 ft 463 kts 338°
2026-05-01 14:23 26.48056 8.96065 39900 ft 463 kts 339°
2026-05-01 14:24 26.54366 8.94631 39900 ft 463 kts 339°
2026-05-01 14:24 26.60672 8.93195 39907 ft 462 kts 339°
2026-05-01 14:25 26.66980 8.91757 39915 ft 462 kts 339°
2026-05-01 14:25 26.73280 8.90319 39918 ft 461 kts 339°
2026-05-01 14:26 26.82674 8.88172 39914 ft 461 kts 339°
2026-05-01 14:27 26.88954 8.86735 39909 ft 460 kts 339°
2026-05-01 14:27 26.95237 8.85296 39896 ft 460 kts 339°
2026-05-01 14:28 27.04659 8.83143 39880 ft 460 kts 339°
2026-05-01 14:28 27.10934 8.81715 39875 ft 460 kts 339°
2026-05-01 14:29 27.17216 8.80284 39864 ft 460 kts 339°
2026-05-01 14:30 27.29748 8.77423 39868 ft 459 kts 339°
2026-05-01 14:31 27.39143 8.75274 39868 ft 458 kts 339°
2026-05-01 14:31 27.45398 8.73840 39871 ft 458 kts 339°
2026-05-01 14:32 27.51635 8.72410 39868 ft 457 kts 339°
2026-05-01 14:32 27.57883 8.70975 39868 ft 457 kts 339°
2026-05-01 14:33 27.64092 8.69548 39863 ft 457 kts 339°
2026-05-01 14:33 27.70335 8.68112 39864 ft 458 kts 339°
2026-05-01 14:34 27.76578 8.66673 39861 ft 458 kts 339°
2026-05-01 14:34 27.82820 8.65233 39861 ft 458 kts 339°
2026-05-01 14:35 27.89067 8.63791 39860 ft 458 kts 339°
2026-05-01 14:35 27.95266 8.62358 39858 ft 457 kts 339°
2026-05-01 14:36 28.01512 8.60912 39861 ft 457 kts 339°
2026-05-01 14:36 28.07747 8.59467 39859 ft 457 kts 339°
2026-05-01 14:37 28.13982 8.58030 39852 ft 457 kts 339°
2026-05-01 14:37 28.20189 8.56608 39855 ft 457 kts 339°
2026-05-01 14:38 28.26422 8.55180 39850 ft 457 kts 339°
2026-05-01 14:38 28.32666 8.53744 39850 ft 457 kts 339°
2026-05-01 14:39 28.38900 8.52309 39850 ft 457 kts 339°
2026-05-01 14:39 28.45262 8.51325 39850 ft 466 kts 346°
2026-05-01 14:40 28.51758 8.50884 39851 ft 468 kts 347°
2026-05-01 14:40 28.58270 8.50579 39843 ft 469 kts 348°
2026-05-01 14:41 28.64749 8.50285 39846 ft 468 kts 348°
2026-05-01 14:41 28.71262 8.49969 39847 ft 468 kts 348°
2026-05-01 14:42 28.77779 8.49642 39845 ft 468 kts 348°
2026-05-01 14:42 28.84294 8.49312 39843 ft 468 kts 348°
2026-05-01 14:43 28.89746 8.49036 39836 ft 468 kts 348°
2026-05-01 14:43 28.96213 8.48709 39834 ft 468 kts 348°
2026-05-01 14:44 29.02738 8.48466 39829 ft 473 kts 352°
2026-05-01 14:44 29.09363 8.49484 39826 ft 487 kts
2026-05-01 14:44 29.12683 8.50325 39827 ft 489 kts
2026-05-01 14:45 29.22598 8.53198 39815 ft 490 kts
2026-05-01 14:46 29.29213 8.55129 39809 ft 490 kts
2026-05-01 14:46 29.39134 8.57964 39810 ft 489 kts
2026-05-01 14:47 29.45699 8.59830 39819 ft 489 kts
2026-05-01 14:48 29.55596 8.62648 39809 ft 488 kts
2026-05-01 14:48 29.65498 8.65476 39814 ft 488 kts
2026-05-01 14:49 29.78667 8.69248 39817 ft 487 kts
2026-05-01 14:50 29.91807 8.73019 39815 ft 486 kts
2026-05-01 14:51 30.01671 8.75865 39820 ft 487 kts
2026-05-01 14:52 30.11522 8.78748 39824 ft 486 kts
2026-05-01 14:53 30.21322 8.81594 39829 ft 486 kts
2026-05-01 14:53 30.27886 8.83493 39828 ft 485 kts
2026-05-01 14:54 30.34440 8.85382 39837 ft 485 kts
2026-05-01 14:54 30.40989 8.87287 39844 ft 485 kts
2026-05-01 14:55 30.47506 8.89176 39843 ft 486 kts
2026-05-01 14:55 30.54077 8.91090 39847 ft 486 kts
2026-05-01 14:56 30.60651 8.93006 39857 ft 487 kts
2026-05-01 14:56 30.67240 8.94934 39858 ft 487 kts
2026-05-01 14:57 30.73788 8.96849 39866 ft 488 kts
2026-05-01 14:57 30.83674 8.99741 39867 ft 488 kts
2026-05-01 14:58 30.90273 9.01678 39881 ft 489 kts
2026-05-01 14:58 30.96879 9.03619 39881 ft 490 kts
2026-05-01 14:59 31.03499 9.05565 39892 ft 490 kts
2026-05-01 14:59 31.10124 9.07513 39895 ft 491 kts
2026-05-01 15:00 31.20020 9.10436 39904 ft 492 kts
2026-05-01 15:01 31.26668 9.12403 39909 ft 492 kts
2026-05-01 15:01 31.33319 9.14372 39916 ft 493 kts
2026-05-01 15:02 31.39973 9.16345 39921 ft 493 kts
2026-05-01 15:02 31.46631 9.18322 39924 ft 493 kts
2026-05-01 15:03 31.53289 9.20302 39927 ft 494 kts
2026-05-01 15:03 31.59952 9.22287 39931 ft 494 kts
2026-05-01 15:04 31.66608 9.24272 39932 ft 494 kts
2026-05-01 15:04 31.73329 9.25346 39945 ft 483 kts 356°
2026-05-01 15:05 31.80044 9.25372 39951 ft 481 kts 354°
2026-05-01 15:05 31.86737 9.25200 39945 ft 481 kts 353°
2026-05-01 15:06 31.93390 9.25019 39951 ft 481 kts 353°
2026-05-01 15:06 32.00086 9.24864 39956 ft 481 kts 354°
2026-05-01 15:07 32.06784 9.24726 39960 ft 481 kts 354°
2026-05-01 15:07 32.13487 9.24593 39962 ft 481 kts 354°
2026-05-01 15:08 32.20182 9.24459 39962 ft 481 kts 354°
2026-05-01 15:08 32.26876 9.24323 39969 ft 481 kts 354°
2026-05-01 15:09 32.33572 9.24185 39971 ft 480 kts 354°
2026-05-01 15:09 32.40216 9.24048 39976 ft 480 kts 354°
2026-05-01 15:10 32.46898 9.23911 39987 ft 480 kts 354°
2026-05-01 15:10 32.56919 9.23701 39985 ft 480 kts 354°
2026-05-01 15:11 32.66953 9.23497 39988 ft 481 kts 355°
2026-05-01 15:12 32.73651 9.23355 39993 ft 481 kts 355°
2026-05-01 15:12 32.83695 9.23142 40000 ft 481 kts 355°
2026-05-01 15:14 33.00404 9.22798 40005 ft 482 kts 355°
2026-05-01 15:14 33.10470 9.22594 40007 ft 482 kts 355°
2026-05-01 15:15 33.23892 9.22314 40016 ft 482 kts 355°
2026-05-01 15:16 33.37312 9.22034 40018 ft 482 kts 355°
2026-05-01 15:18 33.54087 9.21680 40025 ft 483 kts 355°
2026-05-01 15:19 33.67534 9.21394 40030 ft 484 kts 355°
2026-05-01 15:19 33.77592 9.21185 40034 ft 483 kts 355°
2026-05-01 15:20 33.87661 9.20936 40042 ft 482 kts 355°
2026-05-01 15:21 33.94360 9.20774 40042 ft 481 kts 355°
2026-05-01 15:21 34.01056 9.20625 40052 ft 481 kts 355°
2026-05-01 15:22 34.11070 9.20413 40059 ft 478 kts 356°
2026-05-01 15:22 34.17711 9.20272 40070 ft 477 kts 356°
2026-05-01 15:23 34.24336 9.20113 40073 ft 475 kts 355°
2026-05-01 15:23 34.29825 9.19860 40080 ft 474 kts 354°
2026-05-01 15:24 34.37498 9.19422 40085 ft 475 kts 354°
2026-05-01 15:24 34.42993 9.19106 40090 ft 475 kts 354°
2026-05-01 15:25 34.49609 9.18739 40092 ft 476 kts 354°
2026-05-01 15:25 34.56215 9.18379 40100 ft 476 kts 354°
2026-05-01 15:26 34.62851 9.18026 40106 ft 477 kts 355°
2026-05-01 15:26 34.69497 9.17677 40107 ft 478 kts 355°
2026-05-01 15:27 34.76160 9.17323 40110 ft 479 kts 354°
2026-05-01 15:28 34.86184 9.16783 40110 ft 481 kts 354°
2026-05-01 15:28 34.92806 9.16118 40116 ft 480 kts 351°
2026-05-01 15:29 35.02750 9.14518 40116 ft 481 kts 349°
2026-05-01 15:30 35.14954 9.12611 40123 ft 483 kts 350°
2026-05-01 15:31 35.36143 9.09501 40131 ft 486 kts 350°
2026-05-01 15:32 35.49593 9.07522 40141 ft 487 kts 349°
2026-05-01 15:34 35.69843 9.04791 40143 ft 488 kts 350°